Simultaneous Nadir Overpasses (SNOs) Predictions

Prediction of SNOs between AQUA and NOAA-19 Satellite Orbit:

Table of predicted SNOs for the next 14.0 days since TLE Epoch: 3/8/2025
Index Date (AQUA) Time (AQUA) Lat,Lon (AQUA) SZA (AQUA ) Date (NOAA-19) Time (NOAA-19) Lat,Lon (NOAA-19) SZA (NOAA-19 ) Distance(km) Time Diff (sec)
1 03/08/2025 06:31:29 75.64, 85.49 80.33 03/08/2025 06:31:29 75.67, 85.43 80.36 3.15 0
2 03/10/2025 08:39:36 -75.65,-126.51 100.48 03/10/2025 08:38:52 -75.66,-126.40 100.48 3.21 44
3 03/10/2025 09:28:56 75.69, 41.06 79.54 03/10/2025 09:29:50 75.72, 41.07 79.58 3.81 54
4 03/12/2025 10:47:34 75.21, 22.77 78.27 03/12/2025 10:46:27 75.18, 20.26 78.23 71.59 67
5 03/12/2025 11:37:02 -75.69,-170.93 101.28 03/12/2025 11:37:13 -75.68,-170.86 101.28 2.30 11
6 03/14/2025 13:45:07 75.66, -22.80 77.87 03/14/2025 13:44:39 75.63, -22.84 77.85 2.78 28
7 03/14/2025 14:34:27 -75.73, 144.64 102.07 03/14/2025 14:35:34 -75.70, 144.65 102.10 3.79 67
8 03/16/2025 15:53:10 -75.61, 125.39 103.01 03/16/2025 15:52:00 -75.63, 125.36 102.98 2.81 70
9 03/16/2025 16:42:31 75.70, -67.22 77.07 03/16/2025 16:42:59 75.71, -67.13 77.09 2.59 28
10 03/18/2025 18:50:33 -75.65, 80.97 103.81 03/18/2025 18:50:20 -75.68, 80.98 103.77 3.53 13
11 03/18/2025 19:40:04 76.23,-113.18 76.76 03/18/2025 19:41:08 76.27,-109.69 76.83 92.50 64
12 03/20/2025 20:58:36 75.66,-131.04 75.39 03/20/2025 20:57:46 75.66,-130.89 75.39 3.95 50



Historial Predications of SNOs between AQUA and NOAA-19
